Staunton, VA

2:54 PM EDT on August 25, 2019 (GMT -0400)
Shenandoah Valley Regional

Weather History for KSHD - July, 2019

Change the Weather History Date:

Thursday, July 18, 2019

  Actual Average Record
Temperature  
Mean Temperature 80 °F -  
Max Temperature 90 °F 85 °F 100 °F (1997)
Min Temperature 69 °F 63 °F 33 °F (2004)
Cooling Degree Days 14    
Growing Degree Days 30 (Base 50)    
Moisture  
Dew Point 70 °F    
Average Humidity 76    
Maximum Humidity 95    
Minimum Humidity 47    
Precipitation  
Precipitation 0.00 in - - ()
Sea Level Pressure  
Sea Level Pressure 29.97 in    
Wind  
Wind Speed 2 mph (SSW)    
Max Wind Speed 13 mph    
Max Gust Speed 16 mph    
Visibility 10 miles    
Events Rain , Thunderstorm    
Averages and records for this station are not official NWS values.
T = Trace of Precipitation, MM = Missing Value Source: NWS Daily Summary

Daily Weather History Graph

Daily Weather History Graph

Search for Another Location

Airport or City:

Astronomy

Jul. 18, 2019 Rise Set
Actual Time 6:06 AM EDT 8:36 PM EDT
Civil Twilight 5:35 AM EDT 9:07 PM EDT
Nautical Twilight 4:58 AM EDT 9:45 PM EDT
Astronomical Twilight 4:15 AM EDT 10:26 PM EDT
Moon 10:02 PM EDT (7/18) 7:33 AM EDT (7/18)
Length of Visible Light 15h 31m
Length of Day
14h 30m
Full, 97% of the Moon is Illuminated
Jul 18
Full
Jul 24
Last Quarter
Jul 31
New
Aug 7
First Quarter
Aug 15
Full

Hourly Weather History & Observations

Time (EDT) Temp. Heat Index Dew Point Humidity Pressure Visibility Wind Dir Wind Speed Gust Speed Precip Events Conditions
12:10 AM 74.7 °F - 69.8 °F 85% 29.98 in 10.0 mi Calm Calm - N/A   Overcast
12:30 AM 73.8 °F - 69.3 °F 86% 29.98 in 10.0 mi Calm Calm - N/A   Mostly Cloudy
12:50 AM 74.1 °F - 69.4 °F 85% 29.98 in 10.0 mi Calm Calm - N/A   Scattered Clouds
1:10 AM 72.9 °F - 69.1 °F 88% 29.97 in 10.0 mi Calm Calm - N/A   Clear
1:30 AM 73.0 °F - 68.7 °F 86% 29.97 in 10.0 mi SSW 3.5 mph - N/A   Clear
1:50 AM 71.1 °F - 68.4 °F 91% 29.98 in 10.0 mi Calm Calm - N/A   Clear
2:10 AM 70.9 °F - 68.2 °F 91% 29.97 in 10.0 mi Calm Calm - N/A   Clear
2:30 AM 69.8 °F - 68.0 °F 94% 29.97 in 10.0 mi Calm Calm - N/A   Clear
2:50 AM 70.7 °F - 68.7 °F 93% 29.96 in 10.0 mi South 4.6 mph - N/A   Clear
3:10 AM 70.7 °F - 68.5 °F 93% 29.96 in 10.0 mi Calm Calm - N/A   Scattered Clouds
3:30 AM 71.1 °F - 68.2 °F 91% 29.96 in 10.0 mi Calm Calm - N/A   Clear
3:50 AM 70.9 °F - 68.2 °F 91% 29.95 in 10.0 mi Calm Calm - N/A   Clear
4:10 AM 70.3 °F - 68.0 °F 92% 29.96 in 10.0 mi Calm Calm - N/A   Clear
4:30 AM 70.7 °F - 68.0 °F 91% 29.96 in 10.0 mi South 3.5 mph - N/A   Clear
4:50 AM 71.1 °F - 68.0 °F 90% 29.96 in 10.0 mi Calm Calm - N/A   Scattered Clouds
5:10 AM 70.9 °F - 68.0 °F 91% 29.96 in 10.0 mi Calm Calm - N/A   Scattered Clouds
5:30 AM 70.0 °F - 67.6 °F 92% 29.96 in 10.0 mi South 4.6 mph - N/A   Scattered Clouds
5:50 AM 70.9 °F - 68.0 °F 91% 29.97 in 10.0 mi Calm Calm - N/A   Overcast
6:10 AM 70.9 °F - 68.0 °F 91% 29.97 in 10.0 mi Calm Calm - N/A   Mostly Cloudy
6:30 AM 70.7 °F - 68.0 °F 91% 29.97 in 10.0 mi South 3.5 mph - N/A   Clear
6:50 AM 71.6 °F - 68.5 °F 90% 29.98 in 10.0 mi Calm Calm - N/A   Clear
7:10 AM 72.7 °F - 68.9 °F 88% 29.98 in 10.0 mi Calm Calm - N/A   Scattered Clouds
7:30 AM 73.4 °F - 68.9 °F 86% 29.99 in 10.0 mi South 3.5 mph - N/A   Mostly Cloudy
7:50 AM 74.1 °F - 69.4 °F 85% 29.99 in 10.0 mi South 4.6 mph - N/A   Overcast
8:10 AM 74.3 °F - 69.8 °F 86% 29.99 in 10.0 mi SSE 3.5 mph - N/A   Scattered Clouds
8:30 AM 77.9 °F - 70.2 °F 77% 29.99 in 10.0 mi South 3.5 mph - N/A   Clear
8:50 AM 79.7 °F - 70.7 °F 74% 30.00 in 10.0 mi Calm Calm - N/A   Clear
9:10 AM 82.2 °F 86.0 °F 70.0 °F 66% 30.00 in 10.0 mi WSW 3.5 mph - N/A   Scattered Clouds
9:30 AM 83.3 °F 87.9 °F 70.9 °F 66% 30.00 in 10.0 mi WSW 4.6 mph - N/A   Scattered Clouds
9:50 AM 84.2 °F 88.7 °F 70.5 °F 63% 30.00 in 10.0 mi WSW 5.8 mph - N/A   Scattered Clouds
10:10 AM 83.1 °F 86.6 °F 68.9 °F 62% 29.99 in 10.0 mi West 4.6 mph - N/A   Mostly Cloudy
10:30 AM 83.8 °F 87.5 °F 68.9 °F 61% 29.99 in 10.0 mi Calm Calm - N/A   Overcast
10:50 AM 83.3 °F 87.1 °F 69.6 °F 63% 29.99 in 10.0 mi WSW 5.8 mph - N/A   Overcast
11:10 AM 86.0 °F 90.4 °F 69.8 °F 58% 29.99 in 10.0 mi Calm Calm - N/A   Scattered Clouds
11:30 AM 85.6 °F 90.1 °F 69.8 °F 59% 29.99 in 10.0 mi SSW 6.9 mph - N/A   Mostly Cloudy
11:50 AM 85.3 °F 89.4 °F 69.6 °F 59% 29.98 in 10.0 mi Calm Calm - N/A   Mostly Cloudy
12:10 PM 87.4 °F 92.3 °F 69.8 °F 56% 29.98 in 10.0 mi Calm Calm - N/A   Mostly Cloudy
12:30 PM 84.9 °F 89.1 °F 69.8 °F 60% 29.98 in 10.0 mi Calm Calm - N/A   Overcast
12:50 PM 89.6 °F 95.2 °F 70.5 °F 53% 29.98 in 10.0 mi WNW 6.9 mph - N/A   Scattered Clouds
1:10 PM 87.8 °F 92.2 °F 69.1 °F 54% 29.97 in 10.0 mi Calm Calm - N/A   Mostly Cloudy
1:30 PM 89.8 °F 94.2 °F 68.9 °F 50% 29.97 in 10.0 mi Calm Calm - N/A   Scattered Clouds
1:50 PM 90.9 °F 95.3 °F 68.7 °F 48% 29.96 in 10.0 mi North 6.9 mph - N/A   Mostly Cloudy
2:10 PM 90.5 °F 94.6 °F 68.2 °F 48% 29.96 in 10.0 mi NNE 4.6 mph - N/A   Mostly Cloudy
2:30 PM 90.3 °F 93.9 °F 67.6 °F 47% 29.96 in 10.0 mi Calm Calm - N/A Thunderstorm Thunderstorm
2:35 PM 89.8 °F 93.3 °F 67.6 °F 48% 29.97 in 10.0 mi SSW 6.9 mph - N/A   Scattered Clouds
3:00 PM 86.9 °F 93.7 °F 72.3 °F 62% 29.96 in 10.0 mi South 6.9 mph - N/A   Overcast
3:10 PM 87.6 °F 94.3 °F 72.3 °F 60% 29.96 in 10.0 mi SSW 6.9 mph - N/A Thunderstorm Mostly Cloudy
3:30 PM 87.8 °F 93.8 °F 71.6 °F 58% 29.97 in 10.0 mi SSE 8.1 mph - N/A   Scattered Clouds
3:50 PM 85.6 °F 92.2 °F 72.7 °F 65% 29.97 in 10.0 mi South 12.7 mph 16.1 mph N/A   Mostly Cloudy
4:10 PM 86.7 °F 93.3 °F 72.1 °F 62% 29.96 in 10.0 mi SSW 10.4 mph - N/A   Scattered Clouds
4:15 PM 85.6 °F 91.1 °F 71.4 °F 62% 29.96 in 10.0 mi South 8.1 mph - N/A   Scattered Clouds
4:30 PM 86.4 °F 92.6 °F 72.1 °F 62% 29.96 in 10.0 mi SSW 8.1 mph - N/A   Clear
4:50 PM 85.3 °F 90.4 °F 71.1 °F 62% 29.95 in 10.0 mi South 6.9 mph - N/A   Clear
5:10 PM 83.3 °F 87.9 °F 71.1 °F 66% 29.96 in 10.0 mi SSW 6.9 mph - N/A   Clear
5:30 PM 82.6 °F 87.1 °F 71.2 °F 68% 29.95 in 10.0 mi South 4.6 mph - N/A   Scattered Clouds
5:50 PM 83.7 °F 89.2 °F 72.1 °F 68% 29.95 in 10.0 mi South 3.5 mph - N/A   Scattered Clouds
6:10 PM 82.4 °F 87.7 °F 72.5 °F 72% 29.95 in 10.0 mi South 3.5 mph - N/A   Mostly Cloudy
6:30 PM 81.9 °F 87.0 °F 73.0 °F 74% 29.96 in 10.0 mi South 3.5 mph - N/A   Mostly Cloudy
6:35 PM 81.7 °F 86.9 °F 73.0 °F 75% 29.96 in 10.0 mi Calm Calm - N/A   Mostly Cloudy
6:50 PM 81.3 °F 85.4 °F 71.1 °F 71% 29.96 in 10.0 mi WSW 6.9 mph - N/A   Scattered Clouds
7:10 PM 80.2 °F 84.2 °F 72.1 °F 76% 29.96 in 10.0 mi SW 4.6 mph - N/A Rain Light Rain
7:30 PM 81.1 °F 85.4 °F 71.6 °F 73% 29.96 in 10.0 mi WSW 3.5 mph - N/A   Clear
7:50 PM 81.0 °F 85.1 °F 71.6 °F 73% 29.97 in 10.0 mi Calm Calm - N/A   Clear
8:10 PM 80.1 °F 83.7 °F 71.4 °F 75% 29.97 in 10.0 mi Calm Calm - N/A   Clear
8:50 PM 77.0 °F - 71.1 °F 82% 29.97 in 10.0 mi Calm Calm - N/A   Scattered Clouds
8:53 PM 77.0 °F - 71.6 °F 83% 29.97 in 10.0 mi Calm Calm - N/A   Scattered Clouds
8:55 PM 76.8 °F - 71.2 °F 83% 29.97 in 10.0 mi Calm Calm - N/A   Scattered Clouds
9:15 PM 75.4 °F - 71.1 °F 86% 29.98 in 10.0 mi Calm Calm - N/A   Scattered Clouds
9:30 PM 74.7 °F - 70.9 °F 88% 29.98 in 10.0 mi Calm Calm - N/A   Scattered Clouds
9:50 PM 74.3 °F - 70.9 °F 89% 29.98 in 10.0 mi Calm Calm - N/A   Clear
10:10 PM 74.3 °F - 70.7 °F 88% 29.98 in 10.0 mi Calm Calm - N/A   Clear
10:15 PM 74.3 °F - 70.9 °F 89% 29.98 in 10.0 mi Calm Calm - N/A   Clear
10:30 PM 73.2 °F - 70.7 °F 92% 29.99 in 10.0 mi Calm Calm - N/A   Clear
10:35 PM 73.2 °F - 70.7 °F 92% 29.98 in 10.0 mi Calm Calm - N/A   Clear
10:50 PM 73.0 °F - 70.9 °F 93% 29.98 in 10.0 mi Calm Calm - N/A   Clear
11:10 PM 72.5 °F - 70.7 °F 94% 29.99 in 10.0 mi Calm Calm - N/A   Clear
11:30 PM 72.5 °F - 70.9 °F 95% 30.00 in 10.0 mi Calm Calm - N/A   Clear
11:50 PM 72.5 °F - 70.7 °F 94% 30.01 in 10.0 mi Calm Calm - N/A   Clear